Weather reports worldwide

Advertisment
La Coruna, Spain (8001): temperature & dewpoint: 13.08.2019 00:00:00 - 19.08.2019 00:00:00 (CEST)La Coruna, Spain (8001): wind speed: 13.08.2019 00:00:00 - 19.08.2019 00:00:00 (CEST)La Coruna, Spain (8001): wind direction: 13.08.2019 00:00:00 - 19.08.2019 00:00:00 (CEST)La Coruna, Spain (8001): reduced air pressure: 13.08.2019 00:00:00 - 19.08.2019 00:00:00 (CEST)La Coruna, Spain (8001): visibility: 13.08.2019 00:00:00 - 19.08.2019 00:00:00 (CEST)La Coruna, Spain (8001): precipitation: 13.08.2019 00:00:00 - 19.08.2019 00:00:00 (CEST)
Date & Time tt [°C] td [°C] ff [km/h] ff [kn] dd ppp [hPa] vv [km] rr [mm]
19.08.2019 00:00:00 18,0 12,4 8 4 N 1021,5 19 0,0
18.08.2019 23:00:00 17,9 12,1 11 6 N 1021,2 15 -
18.08.2019 22:00:00 18,1 11,6 11 6 N 1020,3 20 0,0
18.08.2019 21:00:00 18,5 11,6 13 7 NNW 1019,8 20 0,0
18.08.2019 20:00:00 19,2 11,5 9 5 NNW 1019,7 20 -
18.08.2019 19:00:00 19,5 12,7 11 6 NW 1019,3 20 0,0
18.08.2019 18:00:00 19,9 12,9 13 7 NW 1019,1 20 0,0
18.08.2019 17:00:00 20,7 11,9 13 7 NNW 1018,8 20 -
18.08.2019 16:00:00 20,8 12,7 11 6 NW 1018,7 20 0,0
18.08.2019 15:00:00 21,2 12,9 11 6 NNW 1018,4 20 0,0
18.08.2019 14:00:00 20,9 12,8 13 7 N 1018,2 25 -
18.08.2019 13:00:00 20,7 12,9 9 5 N 1018,2 20 0,0
18.08.2019 12:00:00 19,8 13,7 9 5 N 1017,8 19 0,0
18.08.2019 11:00:00 18,6 13,5 15 8 N 1017,1 22 -
18.08.2019 10:00:00 17,9 13,8 16 9 N 1016,4 20 0,0
18.08.2019 09:00:00 17,4 14,7 11 6 N 1015,5 18 0,0
18.08.2019 08:00:00 16,8 15,3 5 3 NW 1014,7 22 -
18.08.2019 07:00:00 16,8 16,0 13 7 NW 1014,4 3,9 0,4
18.08.2019 06:00:00 17,2 16,6 8 4 NW 1013,9 5 2,0
18.08.2019 05:00:00 16,5 15,9 15 8 NNW 1013,3 12 -
18.08.2019 04:00:00 20,1 18,9 16 9 W 1012,0 2,0 8,0
18.08.2019 03:00:00 22,3 17,9 9 5 SSW 1011,3 19 0,0
18.08.2019 02:00:00 22,3 17,7 8 4 SSW 1012,1 18 -
18.08.2019 01:00:00 22,4 17,5 8 4 S 1012,3 20 0,0
18.08.2019 00:00:00 22,2 17,3 13 7 S 1012,8 20 0,0
17.08.2019 23:00:00 22,3 17,4 21 11 SSW 1013,3 18 -
17.08.2019 22:00:00 22,8 17,7 9 5 SSW 1012,7 20 0,0
17.08.2019 21:00:00 23,6 17,8 18 10 SSW 1012,6 20 0,0
17.08.2019 20:00:00 24,3 18,2 22 12 SW 1013,0 20 -
17.08.2019 19:00:00 24,9 18,8 21 11 SSW 1013,5 20 0,0
17.08.2019 18:00:00 25,0 19,1 21 11 SW 1013,7 20 0,0
17.08.2019 17:00:00 25,6 19,0 26 14 SW 1013,9 20 -
17.08.2019 16:00:00 25,4 19,3 16 9 S 1014,1 20 0,0
17.08.2019 15:00:00 24,3 19,1 11 6 S 1014,6 20 0,0
17.08.2019 14:00:00 24,3 19,1 15 8 SSE 1015,0 25 -
17.08.2019 13:00:00 24,1 19,0 11 6 SSW 1015,3 20 0,0
17.08.2019 12:00:00 23,3 18,6 15 8 SSE 1015,3 20 0,0
17.08.2019 11:00:00 22,3 18,3 13 7 S 1015,8 18 -
17.08.2019 10:00:00 21,0 18,4 11 6 S 1015,9 19 0,0
17.08.2019 09:00:00 21,0 18,0 11 6 S 1015,7 18 0,0
17.08.2019 08:00:00 21,2 17,6 8 4 S 1015,7 15 -
17.08.2019 07:00:00 21,2 17,4 8 4 S 1015,6 19 0,0
17.08.2019 06:00:00 21,2 17,2 9 5 S 1015,9 20 0,0
17.08.2019 05:00:00 21,0 17,0 11 6 S 1016,1 20 -
17.08.2019 04:00:00 21,0 16,8 8 4 S 1016,6 20 0,0
17.08.2019 03:00:00 20,6 16,6 8 4 S 1017,5 20 0,0
17.08.2019 02:00:00 20,6 16,4 9 5 S 1017,8 20 -
17.08.2019 01:00:00 20,7 16,3 9 5 S 1017,8 20 0,0
17.08.2019 00:00:00 21,0 16,6 11 6 SSW 1018,1 20 0,0
16.08.2019 23:00:00 21,4 17,0 13 7 SSW 1018,4 20 -
16.08.2019 22:00:00 21,5 17,1 15 8 WSW 1018,1 20 0,0
16.08.2019 21:00:00 22,0 17,6 11 6 WSW 1017,6 20 0,0
16.08.2019 20:00:00 22,5 17,4 18 10 W 1017,5 20 -
16.08.2019 19:00:00 22,9 17,1 22 12 W 1017,8 20 0,0
16.08.2019 18:00:00 24,3 17,1 28 15 W 1018,1 20 0,0
16.08.2019 17:00:00 24,0 17,7 18 10 WNW 1018,5 20 -
16.08.2019 16:00:00 24,0 17,3 22 12 WNW 1018,8 20 0,0
16.08.2019 15:00:00 23,5 16,8 26 14 WNW 1019,2 20 0,0
16.08.2019 14:00:00 23,1 15,4 18 10 WNW 1019,4 25 -
16.08.2019 13:00:00 23,4 16,0 18 10 WNW 1019,6 20 0,0
16.08.2019 12:00:00 20,8 15,6 13 7 W 1019,8 20 0,0
16.08.2019 11:00:00 20,1 15,3 8 4 W 1019,8 22 -
16.08.2019 10:00:00 18,7 15,2 4 2 ESE 1019,9 20 0,0
16.08.2019 09:00:00 16,7 14,2 8 4 S 1020,1 19 0,0
16.08.2019 08:00:00 16,6 14,4 2 1 SSE 1020,1 20 -
16.08.2019 07:00:00 16,9 15,1 9 5 WSW 1020,1 19 0,0
16.08.2019 06:00:00 16,4 14,9 5 3 WSW 1020,3 17 0,0
16.08.2019 05:00:00 16,3 14,1 2 1 SE 1020,4 20 -
16.08.2019 04:00:00 17,0 14,6 5 3 SSW 1020,4 19 0,0
16.08.2019 03:00:00 17,3 15,1 5 3 WSW 1021,0 18 0,0
16.08.2019 02:00:00 17,5 15,1 8 4 SSW 1021,4 20 -
16.08.2019 01:00:00 17,7 14,6 5 3 S 1021,5 15 0,0
16.08.2019 00:00:00 18,1 14,8 2 1 SSW 1021,5 19 0,0
15.08.2019 23:00:00 18,4 15,1 5 3 WSW 1022,1 20 -
15.08.2019 22:00:00 18,7 15,4 9 5 WNW 1021,9 19 0,0
15.08.2019 21:00:00 19,2 15,3 8 4 N 1022,1 19 0,0
15.08.2019 20:00:00 19,5 14,9 13 7 NNW 1022,2 20 -
15.08.2019 19:00:00 20,0 14,4 11 6 NNW 1022,1 20 0,0
15.08.2019 18:00:00 20,6 14,0 11 6 NNW 1022,4 20 0,0
15.08.2019 17:00:00 20,9 14,1 13 7 NNW 1022,8 20 -
15.08.2019 16:00:00 20,8 14,2 11 6 NNW 1023,4 20 0,0
15.08.2019 15:00:00 21,9 14,5 18 10 N 1023,6 20 0,0
15.08.2019 14:00:00 21,7 15,5 16 9 N 1023,8 25 -
15.08.2019 13:00:00 21,1 15,2 11 6 N 1023,8 19 0,0
15.08.2019 12:00:00 20,7 14,1 9 5 NNE 1023,9 20 0,0
15.08.2019 11:00:00 20,8 14,2 5 3 ENE 1023,7 25 -
15.08.2019 10:00:00 19,7 14,9 4 2 ENE 1023,6 19 0,0
15.08.2019 09:00:00 17,3 14,6 4 2 E 1023,6 18 0,0
15.08.2019 08:00:00 16,9 14,9 4 2 SE 1023,3 20 -
15.08.2019 07:00:00 17,0 15,0 5 3 SE 1023,2 18 0,0
15.08.2019 06:00:00 17,1 14,7 2 1 ESE 1023,4 15 0,0
15.08.2019 05:00:00 17,1 14,0 0 0 N 1023,4 20 -
15.08.2019 04:00:00 17,6 13,9 2 1 NNW 1023,5 20 0,0
15.08.2019 03:00:00 18,0 14,1 5 3 NW 1023,8 19 0,0
15.08.2019 02:00:00 18,1 14,6 4 2 NW 1023,9 16 -
15.08.2019 01:00:00 18,2 15,4 5 3 W 1023,8 18 0,0
15.08.2019 00:00:00 18,2 15,4 5 3 NW 1023,7 20 0,0
14.08.2019 23:00:00 18,3 16,1 9 5 NW 1023,4 12 -
14.08.2019 22:00:00 18,3 17,3 5 3 NW 1022,8 12 0,0
14.08.2019 21:00:00 18,5 18,0 9 5 WNW 1022,7 7 0,2
14.08.2019 20:00:00 19,7 18,9 13 7 W 1022,3 - -
14.08.2019 19:00:00 20,2 19,2 11 6 W 1022,2 3,0 0,0
14.08.2019 18:00:00 21,1 18,8 16 9 W 1022,2 20 0,0
14.08.2019 17:00:00 21,2 19,3 18 10 W 1022,2 3,7 -
14.08.2019 16:00:00 22,1 18,9 15 8 W 1022,1 18 0,0
14.08.2019 15:00:00 22,6 18,8 11 6 W 1022,2 19 0,0
14.08.2019 14:00:00 21,7 18,7 13 7 WNW 1022,3 8 -
14.08.2019 13:00:00 20,8 18,0 11 6 WSW 1022,2 20 0,0
14.08.2019 12:00:00 19,6 17,6 5 3 S 1021,9 5 0,2
14.08.2019 11:00:00 19,3 17,1 8 4 SW 1021,8 18 -
14.08.2019 10:00:00 19,4 16,2 4 2 W 1021,6 8 0,0
14.08.2019 09:00:00 18,6 13,7 8 4 S 1021,0 18 0,0
14.08.2019 08:00:00 17,8 12,7 4 2 SSE 1021,0 25 -
14.08.2019 07:00:00 17,3 12,2 9 5 SSE 1020,8 20 0,0
14.08.2019 06:00:00 16,9 11,2 5 3 SSE 1020,9 20 0,0
14.08.2019 05:00:00 16,8 12,1 4 2 N 1021,4 15 -
14.08.2019 04:00:00 17,0 12,3 8 4 S 1021,6 20 0,0
14.08.2019 03:00:00 17,1 13,6 8 4 S 1021,9 20 0,0
14.08.2019 02:00:00 17,2 13,5 2 1 SE 1022,2 15 -
14.08.2019 01:00:00 17,5 13,6 4 2 SE 1022,0 20 0,0
14.08.2019 00:00:00 17,4 13,5 4 2 WNW 1022,6 20 0,0
13.08.2019 23:00:00 17,6 13,5 5 3 WNW 1023,1 15 -
13.08.2019 22:00:00 18,0 13,5 5 3 NW 1022,8 20 0,0
13.08.2019 21:00:00 18,6 13,7 8 4 NW 1022,7 20 0,0
13.08.2019 20:00:00 19,1 13,7 9 5 WNW 1022,6 20 -
13.08.2019 19:00:00 19,4 13,8 15 8 NNW 1022,7 20 0,0
13.08.2019 18:00:00 20,2 14,1 13 7 N 1022,7 20 0,0
13.08.2019 17:00:00 20,7 13,9 13 7 N 1023,0 20 -
13.08.2019 16:00:00 20,5 13,7 15 8 N 1023,2 20 0,0
13.08.2019 15:00:00 20,5 13,2 16 9 N 1023,4 20 0,0
13.08.2019 14:00:00 20,2 13,2 15 8 N 1023,7 25 -
13.08.2019 13:00:00 19,9 13,6 13 7 NNW 1023,9 20 0,0
13.08.2019 12:00:00 19,5 13,2 8 4 NE 1024,1 20 0,0
13.08.2019 11:00:00 18,8 12,3 5 3 E 1024,4 25 -
13.08.2019 10:00:00 17,3 12,0 5 3 E 1024,2 20 0,0
13.08.2019 09:00:00 14,6 11,4 4 2 SE 1024,3 20 0,0
13.08.2019 08:00:00 13,9 11,2 4 2 SE 1024,0 22 -
13.08.2019 07:00:00 13,9 11,4 5 3 SE 1023,8 20 0,0
13.08.2019 06:00:00 14,2 11,7 4 2 SE 1023,8 20 0,0
13.08.2019 05:00:00 14,6 11,9 4 2 SE 1023,7 18 -
13.08.2019 04:00:00 15,1 12,2 5 3 ENE 1024,2 20 0,0
13.08.2019 03:00:00 15,5 12,1 4 2 NNE 1024,9 20 0,0
13.08.2019 02:00:00 16,0 12,0 8 4 E 1025,2 18 -
13.08.2019 01:00:00 16,4 12,0 8 4 ENE 1025,7 20 0,0
13.08.2019 00:00:00 16,8 11,5 9 5 NE 1026,0 20 0,0

tt = temperature
td = dewpoint
ff = wind speed
dd = wind direction
ppp = reduced air pressure
vv = visibility
rr = precipitation

Next stations